SYB1011 EHRD-EHGG

Flight info

Callsign SYB1011
Flight time N/A
Altitude 18000
Route ANDIK N873 GRONY
Aircraft C700/M-SBDGHM1RWXY/LB2

Departure

Time 2026-04-27 14:16
Airport Rotterdam The Hague Airport (EHRD)

Arrival

Time N/A
Airport Groningen Airport Eelde (EHGG)
Time Latitude Longitude Altitude Speed Heading
2026-04-27 13:51 51.95059 4.43807 -5 ft 0 kts 325°
2026-04-27 14:12 51.95060 4.43803 -5 ft 1 kts 297°
2026-04-27 14:12 51.95056 4.43795 -5 ft 1 kts 212°
2026-04-27 14:12 51.95037 4.43802 -5 ft 4 kts 197°
2026-04-27 14:12 51.95023 4.43739 -5 ft 5 kts 324°
2026-04-27 14:13 51.95077 4.43687 -5 ft 14 kts 328°
2026-04-27 14:13 51.95178 4.43578 -5 ft 20 kts 328°
2026-04-27 14:13 51.95255 4.43497 -5 ft 6 kts 313°
2026-04-27 14:13 51.95253 4.43423 -5 ft 9 kts 238°
2026-04-27 14:14 51.95214 4.43326 -5 ft 12 kts 237°
2026-04-27 14:14 51.95163 4.43198 -5 ft 15 kts 238°
2026-04-27 14:14 51.95112 4.43029 -5 ft 18 kts 246°
2026-04-27 14:14 51.95160 4.42898 -5 ft 15 kts 329°
2026-04-27 14:15 51.95232 4.42884 -4 ft 6 kts 57°
2026-04-27 14:15 51.95233 4.42887 -4 ft 0 kts 57°
2026-04-27 14:15 51.95281 4.43005 -4 ft 47 kts 56°
2026-04-27 14:16 51.95483 4.43511 -6 ft 112 kts 57°
2026-04-27 14:16 51.96015 4.44950 261 ft 175 kts 59°
2026-04-27 14:16 51.96729 4.46915 861 ft 228 kts 57°
2026-04-27 14:16 51.97624 4.49402 1486 ft 274 kts 60°
2026-04-27 14:17 51.98435 4.51976 2113 ft 239 kts 62°
2026-04-27 14:17 51.99152 4.54197 2641 ft 205 kts 59°
2026-04-27 14:17 51.99827 4.56102 2988 ft 191 kts 57°
2026-04-27 14:17 52.00745 4.57659 3029 ft 199 kts 34°
2026-04-27 14:18 52.01955 4.58642 3442 ft 193 kts 24°
2026-04-27 14:18 52.03314 4.59658 3937 ft 235 kts 26°
2026-04-27 14:18 52.04812 4.60882 4447 ft 251 kts 32°
2026-04-27 14:18 52.06104 4.62745 4955 ft 257 kts 46°
2026-04-27 14:19 52.07357 4.64867 5005 ft 259 kts 45°
2026-04-27 14:19 52.08629 4.66973 5005 ft 261 kts 45°
2026-04-27 14:19 52.09884 4.69106 5019 ft 259 kts 45°
2026-04-27 14:19 52.11117 4.71186 5020 ft 258 kts 45°
2026-04-27 14:20 52.12371 4.73294 5020 ft 259 kts 45°
2026-04-27 14:20 52.13626 4.75409 5026 ft 259 kts 45°